Location: Condor
(52.3263°N, 114.5541°W)
Time: 05:56:59
(UTC+00:00)

AO-27 - Visible Passes

Search period start: 01 December 2023 00:00
Search period end: 11 December 2023 00:00
Orbit: 785 x 796 km, 98.8° (Epoch: 29 November)

Date Brightness Start Highest point End Pass type
(mag) Time Alt. Az. Time Alt. Az. Time Alt. Az.
01 Dec 10.0 03:06:14 13° N 03:06:14 13° N 03:06:44 10° N visible
02 Dec 9.9 02:36:29 13° N 02:36:29 13° N 02:37:03 10° N visible
03 Dec 9.9 02:06:44 12° N 02:06:44 12° N 02:07:11 10° N visible
03 Dec 10.4 03:47:29 10° NNW 03:47:29 10° NNW 03:47:30 10° NNW visible
04 Dec 10.2 03:17:44 11° N 03:17:44 11° N 03:18:00 10° N visible
05 Dec 10.0 02:47:59 12° N 02:47:59 12° N 02:48:22 10° N visible
06 Dec 9.9 02:18:14 11° N 02:18:14 11° N 02:18:35 10° N visible
07 Dec 9.9 01:48:28 10° NNE 01:48:28 10° NNE 01:48:31 10° NNE visible
07 Dec 10.3 03:29:12 10° NNW 03:29:12 10° NNW 03:29:15 10° NNW visible
08 Dec 10.1 02:59:27 11° N 02:59:27 11° N 02:59:40 10° N visible
09 Dec 10.0 02:29:40 11° N 02:29:40 11° N 02:29:56 10° N visible
10 Dec 9.9 01:59:54 10° N 01:59:54 10° N 02:00:00 10° N visible
